Location: Miles
(41.4492°N, 81.6087°W)
Time: 08:33:42
(UTC+00:00)

Transit 2A - Pass Details

Date: 19 September 2024
Orbit: 590 x 960 km, 66.7° (Epoch: 09 October)

Event Time Altitude Azimuth Distance (km) Brightness Sun altitude
Rises 00:32:57 0° 250° (WSW) 3,472 10.4 -12.6°
Reaches altitude 10° 00:35:53 10° 264° (W) 2,587 9.9 -13.1°
Maximum altitude 00:40:43 24° 317° (NW) 1,834 8.7 -14.0°
Drops below altitude 10° 00:45:46 10° 10° (N) 2,696 8.9 -14.9°
Sets 00:48:55 0° 24° (NNE) 3,650 9.4 -15.5°
